Location: Deurze
(52.9838°N, 6.6090°E)
Time: 18:36:41
(UTC+00:00)

Cosmos 2297 Rocket - Pass Details

Date: 11 March 2026
Orbit: 840 x 841 km, 71.0° (Epoch: 20 April)

Event Time Altitude Azimuth Distance (km) Brightness Sun altitude
Rises 21:43:52 0° 327° (NNW) 3,408 6.4 -34.7°
Reaches altitude 10° 21:46:19 10° 326° (NW) 2,469 5.4 -34.9°
Enters shadow 21:49:52 40° 318° (NW) 1,232 3.3 -35.2°
